[TLELIST] Archives

 

[list_settings.list_name] Current TLEs

November 4th 2011 PST

HST 1 20580U 90037B 11306.10856795 .00002440 00000-0 17053-3 0 8770 2 20580 028.4695 195.3338 0003420 146.9247 213.1679 15.01722135980402 ISS (ZARYA) 1 25544U 98067A 11307.25525468 .00032566 00000-0 40268-3 0 3651 2 25544 051.6413 180.7658 0021746 015.8540 087.4871 15.59528357742626 CXO 1 25867U 99040B 11309.12500000 .00000031 00000-0 00000+0 0 6633 2 25867 070.4905 021.7726 8710501 277.3392 356.4814 00.37807879 8306 ____________________________________________________________________ These 2-Line ...Continue Reading

[list_settings.list_name] Current TLEs

November 3rd 2011 PST

HST 1 20580U 90037B 11304.18123544 +.00002224 +00000-0 +15437-3 0 08623 2 20580 028.4698 207.9317 0003445 130.5397 229.5258 15.01712402980112 ISS (ZARYA) 1 25544U 98067A 11305.84325350 +.00005511 +00000-0 +74136-4 0 03564 2 25544 051.6389 187.8649 0021643 010.6279 080.2492 15.59423001742400 CXO 1 25867U 99040B 11306.50000000 +.00000079 +00000-0 +00000-0 0 06629 2 25867 070.4709 021.9450 8709502 277.3184 359.1934 00.37805725008291 ____________________________________________________________________ These 2-Line ...Continue Reading

[list_settings.list_name] Current TLEs

November 2nd 2011 PST

HST 1 20580U 90037B 11303.18433669 +.00003257 +00000-0 +23190-3 0 08615 2 20580 028.4695 214.4549 0003387 120.3633 239.7056 15.01712866979968 ISS (ZARYA) 1 25544U 98067A 11303.91517543 +.00025396 +00000-0 +31775-3 0 03437 2 25544 051.6420 197.5485 0021820 004.3980 055.3847 15.59359381742101 CXO 1 25867U 99040B 11303.83333333 -.00000034 +00000-0 +00000-0 0 06611 2 25867 070.4526 022.1081 8708551 277.2968 356.2497 00.37807499008284 ____________________________________________________________________ These 2-Line ...Continue Reading

[list_settings.list_name] Current TLEs

November 1st 2011 PST

HST 1 20580U 90037B 11301.19053558 +.00003160 +00000-0 +22469-3 0 08609 2 20580 028.4701 227.4765 0003307 103.5954 256.4971 15.01701618979663 ISS (ZARYA) 1 25544U 98067A 11302.89537947 -.00001521 +00000-0 -12123-4 0 03379 2 25544 051.6410 202.6756 0022234 357.4073 093.7398 15.59244431741941 CXO 1 25867U 99040B 11303.83333333 -.00000034 +00000-0 +00000-0 0 06611 2 25867 070.4526 022.1081 8708551 277.2968 356.2497 00.37807499008284 ____________________________________________________________________ These 2-Line ...Continue Reading

[list_settings.list_name] Current TLEs

October 31st 2011 PST

HST 1 20580U 90037B 11301.19053558 +.00003160 +00000-0 +22469-3 0 08609 2 20580 028.4701 227.4765 0003307 103.5954 256.4971 15.01701618979663 ISS (ZARYA) 1 25544U 98067A 11277.47720390 .00016290 00000-0 20051-3 0 1799 2 25544 051.6409 330.5577 0016364 287.5750 217.0942 15.60246636737978 CXO 1 25867U 99040B 11301.20833333 -.00000059 +00000-0 +00000-0 0 06601 2 25867 070.4306 022.3162 8706003 277.2557 359.0111 00.37811240008278 ____________________________________________________________________ These 2-Line ...Continue Reading

[list_settings.list_name] Current TLEs

October 30th 2011 PST

HST 1 20580U 90037B 11300.19362378 +.00002851 +00000-0 +20155-3 0 08595 2 20580 028.4701 233.9938 0003291 100.0745 259.9927 15.01695829979518 ISS (ZARYA) 1 25544U 98067A 11300.90778693 +.00027582 +00000-0 +34649-3 0 03250 2 25544 051.6430 212.6614 0021716 352.8746 093.9444 15.59204992741635 CXO 1 25867U 99040B 11301.20833333 -.00000059 +00000-0 +00000-0 0 06601 2 25867 070.4306 022.3162 8706003 277.2557 359.0111 00.37811240008278 ____________________________________________________________________ These 2-Line ...Continue Reading

[list_settings.list_name] Current TLEs

October 29th 2011 PST

HST 1 20580U 90037B 11296.20596250 +.00003035 +00000-0 +21550-3 0 08572 2 20580 028.4706 260.0600 0003211 045.9963 314.0958 15.01667302978916 ISS (ZARYA) 1 25544U 98067A 11300.76416444 .00045603 00000-0 56230-3 0 3240 2 25544 051.6399 213.3840 0021869 353.4471 006.6750 15.59215888145678 CXO 1 25867U 99040B 11298.54166667 +.00000183 +00000-0 +00000-0 0 06586 2 25867 070.4067 022.5248 8700108 277.2322 356.0405 00.37807225008269 ____________________________________________________________________ These 2-Line ...Continue Reading

[list_settings.list_name] Current TLEs

October 28th 2011 PST

HST 1 20580U 90037B 11296.20596250 +.00003035 +00000-0 +21550-3 0 08572 2 20580 028.4706 260.0600 0003211 045.9963 314.0958 15.01667302978916 ISS (ZARYA) 1 25544U 98067A 11298.86055899 +.00055046 +00000-0 +65844-3 0 03119 2 25544 051.6416 222.9487 0018418 355.8254 109.6014 15.60234691741317 CXO 1 25867U 99040B 11298.54166667 +.00000183 +00000-0 +00000-0 0 06586 2 25867 070.4067 022.5248 8700108 277.2322 356.0405 00.37807225008269 ____________________________________________________________________ These 2-Line ...Continue Reading

[list_settings.list_name] Current TLEs

October 27th 2011 PST

HST 1 20580U 90037B 11296.20596250 +.00003035 +00000-0 +21550-3 0 08572 2 20580 028.4706 260.0600 0003211 045.9963 314.0958 15.01667302978916 ISS (ZARYA) 1 25544U 98067A 11297.89591008 +.00031331 +00000-0 +38032-3 0 03062 2 25544 051.6404 227.7996 0017958 352.2552 091.4670 15.60125693741162 CXO 1 25867U 99040B 11298.54166667 +.00000183 +00000-0 +00000-0 0 06586 2 25867 070.4067 022.5248 8700108 277.2322 356.0405 00.37807225008269 ____________________________________________________________________ These 2-Line ...Continue Reading

[list_settings.list_name] Current TLEs

October 26th 2011 PST

HST 1 20580U 90037B 11296.20596250 +.00003035 +00000-0 +21550-3 0 08572 2 20580 028.4706 260.0600 0003211 045.9963 314.0958 15.01667302978916 ISS (ZARYA) 1 25544U 98067A 11298.23030212 .00030120 00000-0 36562-3 0 3089 2 25544 051.6405 226.1167 0018087 353.5018 169.5798 15.60144326741219 CXO 1 25867U 99040B 11295.91666667 +.00000407 +00000-0 +00000-0 0 06577 2 25867 070.3799 022.6912 8696657 277.2458 358.6232 00.37806367008253 ____________________________________________________________________ These 2-Line ...Continue Reading
  • This mailing list is a public mailing list - anyone may join or leave, at any time.
  • This mailing list is announce-only.

International Space Station (ISS) / Hubble Space Telescope (HST) / Chandra X-Ray Observatory Orbital Data via EMAIL

Privacy Policy:

Private list